Time,TemperatureF,DewpointF,PressureIn,WindDirection,WindDirectionDegrees,WindSpeedMPH,WindSpeedGustMPH,Humidity,HourlyPrecipIn,Conditions,Clouds,dailyrainin,SoftwareType,DateUTC
2013-07-15 00:02:00,75.7,69.1,-100.00,ESE,105,0.0,1.0,80,0.00,,,0.00,meteohub,2013-07-15 05:02:00,
2013-07-15 00:07:00,75.7,69.1,-100.00,ESE,105,0.0,1.0,80,0.00,,,0.00,meteohub,2013-07-15 05:07:00,
2013-07-15 00:12:00,75.6,68.9,-100.00,ESE,105,0.0,1.0,80,0.00,,,0.00,meteohub,2013-07-15 05:12:00,
2013-07-15 00:17:00,75.6,69.3,-100.00,ESE,105,0.0,1.0,81,0.00,,,0.00,meteohub,2013-07-15 05:17:00,
2013-07-15 00:22:00,75.6,69.3,-100.00,ESE,105,0.0,1.0,81,0.00,,,0.00,meteohub,2013-07-15 05:22:00,
2013-07-15 00:27:00,75.6,69.3,-100.00,ESE,105,0.0,1.0,81,0.00,,,0.00,meteohub,2013-07-15 05:27:00,
2013-07-15 00:32:00,75.4,69.1,-100.00,ESE,105,0.0,1.0,81,0.00,,,0.00,meteohub,2013-07-15 05:32:00,
2013-07-15 00:37:00,75.2,68.9,-100.00,ESE,105,0.0,1.0,81,0.00,,,0.00,meteohub,2013-07-15 05:37:00,
2013-07-15 00:42:00,75.0,68.7,-100.00,ESE,105,0.0,1.0,81,0.00,,,0.00,meteohub,2013-07-15 05:42:00,
2013-07-15 00:48:00,74.8,68.9,-100.00,ESE,105,0.0,1.0,82,0.00,,,0.00,meteohub,2013-07-15 05:48:00,
2013-07-15 00:53:00,74.8,68.9,-100.00,ESE,105,0.0,1.0,82,0.00,,,0.00,meteohub,2013-07-15 05:53:00,
2013-07-15 00:58:00,74.8,68.9,-100.00,ESE,105,0.0,1.0,82,0.00,,,0.00,meteohub,2013-07-15 05:58:00,
2013-07-15 01:03:00,74.7,68.7,-100.00,ESE,105,0.0,0.0,82,0.00,,,0.00,meteohub,2013-07-15 06:03:00,
2013-07-15 01:08:00,74.5,68.5,-100.00,ESE,105,0.0,0.0,82,0.00,,,0.00,meteohub,2013-07-15 06:08:00,
2013-07-15 01:13:00,74.5,68.5,-100.00,ESE,105,0.0,0.0,82,0.00,,,0.00,meteohub,2013-07-15 06:13:00,
2013-07-15 01:18:00,74.5,68.5,-100.00,ESE,105,0.0,1.0,82,0.00,,,0.00,meteohub,2013-07-15 06:18:00,
2013-07-15 01:23:00,74.3,68.4,-100.00,ESE,105,0.0,1.0,82,0.00,,,0.00,meteohub,2013-07-15 06:23:00,
2013-07-15 01:28:00,74.1,68.2,-100.00,ESE,105,0.0,1.0,82,0.00,,,0.00,meteohub,2013-07-15 06:28:00,
2013-07-15 01:29:00,74.1,68.2,-100.00,ESE,105,0.0,1.0,82,0.00,,,0.00,meteohub,2013-07-15 06:29:00,
2013-07-15 01:34:00,74.1,68.5,-100.00,ESE,105,0.0,0.0,83,0.00,,,0.00,meteohub,2013-07-15 06:34:00,
2013-07-15 01:39:00,74.1,68.5,-100.00,ESE,105,0.0,0.0,83,0.00,,,0.00,meteohub,2013-07-15 06:39:00,
2013-07-15 01:44:00,74.1,68.5,-100.00,ESE,105,0.0,0.0,83,0.00,,,0.00,meteohub,2013-07-15 06:44:00,
2013-07-15 01:49:00,74.1,68.5,-100.00,ESE,105,0.0,0.0,83,0.00,,,0.00,meteohub,2013-07-15 06:49:00,
2013-07-15 02:48:00,74.1,68.2,-100.00,ESE,105,0.0,1.0,82,0.00,,,0.00,meteohub,2013-07-15 07:48:00,
2013-07-15 02:53:00,74.1,68.2,-100.00,ESE,105,0.0,0.0,82,0.00,,,0.00,meteohub,2013-07-15 07:53:00,
2013-07-15 02:58:00,74.1,68.2,-100.00,ESE,104,0.0,0.0,82,0.00,,,0.00,meteohub,2013-07-15 07:58:00,
2013-07-15 03:03:00,73.9,68.2,-100.00,ESE,104,0.0,0.0,82,0.00,,,0.00,meteohub,2013-07-15 08:03:00,
2013-07-15 03:08:00,73.9,68.4,-100.00,ESE,103,0.0,0.0,83,0.00,,,0.00,meteohub,2013-07-15 08:08:00,
2013-07-15 03:13:00,73.8,68.4,-100.00,ESE,104,0.0,0.0,83,0.00,,,0.00,meteohub,2013-07-15 08:13:00,
2013-07-15 03:18:00,73.8,68.4,-100.00,ESE,104,0.0,1.0,83,0.00,,,0.00,meteohub,2013-07-15 08:18:00,
2013-07-15 03:23:00,73.8,68.4,-100.00,ESE,103,0.0,1.0,83,0.00,,,0.00,meteohub,2013-07-15 08:23:00,
2013-07-15 03:28:00,73.9,68.4,-100.00,ESE,104,0.0,1.0,83,0.00,,,0.00,meteohub,2013-07-15 08:28:00,
2013-07-15 03:33:00,73.9,68.4,-100.00,ESE,103,0.0,1.0,83,0.00,,,0.00,meteohub,2013-07-15 08:33:00,
2013-07-15 03:38:00,73.9,68.4,-100.00,ESE,103,0.0,1.0,83,0.00,,,0.00,meteohub,2013-07-15 08:38:00,
2013-07-15 03:44:00,73.9,68.4,-100.00,ESE,103,0.0,0.0,83,0.00,,,0.00,meteohub,2013-07-15 08:44:00,
2013-07-15 03:49:00,73.8,68.4,-100.00,ESE,104,0.0,0.0,83,0.00,,,0.00,meteohub,2013-07-15 08:49:00,
2013-07-15 03:54:00,73.8,68.4,-100.00,ESE,103,0.0,0.0,83,0.00,,,0.00,meteohub,2013-07-15 08:54:00,
2013-07-15 03:59:00,73.8,68.4,-100.00,ESE,103,0.0,0.0,83,0.00,,,0.00,meteohub,2013-07-15 08:59:00,
2013-07-15 04:04:00,73.6,68.2,-100.00,ESE,103,0.0,0.0,83,0.00,,,0.00,meteohub,2013-07-15 09:04:00,
2013-07-15 04:09:00,73.6,68.2,-100.00,ESE,104,0.0,1.0,83,0.00,,,0.00,meteohub,2013-07-15 09:09:00,
2013-07-15 04:14:00,73.4,68.2,-100.00,ESE,104,0.0,1.0,84,0.00,,,0.00,meteohub,2013-07-15 09:14:00,
2013-07-15 04:19:00,73.2,68.2,-100.00,ESE,103,0.0,1.0,84,0.00,,,0.00,meteohub,2013-07-15 09:19:00,
2013-07-15 04:24:00,73.0,68.0,-100.00,ESE,103,0.0,1.0,84,0.00,,,0.00,meteohub,2013-07-15 09:24:00,
2013-07-15 04:29:00,72.9,67.8,-100.00,ESE,104,0.0,0.0,84,0.00,,,0.00,meteohub,2013-07-15 09:29:00,
2013-07-15 04:34:00,72.7,67.8,-100.00,ESE,104,0.0,0.0,85,0.00,,,0.00,meteohub,2013-07-15 09:34:00,
2013-07-15 04:39:00,72.7,67.8,-100.00,ESE,104,0.0,0.0,85,0.00,,,0.00,meteohub,2013-07-15 09:39:00,
2013-07-15 04:44:00,72.5,68.0,-100.00,ESE,104,0.0,0.0,86,0.00,,,0.00,meteohub,2013-07-15 09:44:00,
2013-07-15 04:49:00,72.3,67.8,-100.00,ESE,103,0.0,0.0,86,0.00,,,0.00,meteohub,2013-07-15 09:49:00,
2013-07-15 04:54:00,72.1,67.6,-100.00,ESE,103,0.0,0.0,86,0.00,,,0.00,meteohub,2013-07-15 09:54:00,
2013-07-15 04:59:00,72.1,67.6,-100.00,ESE,104,0.0,0.0,86,0.00,,,0.00,meteohub,2013-07-15 09:59:00,
2013-07-15 05:04:00,72.0,67.8,-100.00,ESE,103,0.0,1.0,87,0.00,,,0.00,meteohub,2013-07-15 10:04:00,
2013-07-15 05:09:00,72.0,67.8,-100.00,ESE,103,0.0,1.0,87,0.00,,,0.00,meteohub,2013-07-15 10:09:00,
2013-07-15 05:14:00,72.0,67.8,-100.00,ESE,103,0.0,0.0,87,0.00,,,0.00,meteohub,2013-07-15 10:14:00,
2013-07-15 05:19:00,71.8,67.6,-100.00,ESE,103,0.0,1.0,87,0.00,,,0.00,meteohub,2013-07-15 10:19:00,
2013-07-15 05:24:00,71.8,67.6,-100.00,ESE,104,0.0,1.0,87,0.00,,,0.00,meteohub,2013-07-15 10:24:00,
2013-07-15 05:29:00,71.8,67.6,-100.00,ESE,104,0.0,0.0,87,0.00,,,0.00,meteohub,2013-07-15 10:29:00,
2013-07-15 05:34:00,71.8,67.6,-100.00,ESE,104,0.0,1.0,87,0.00,,,0.00,meteohub,2013-07-15 10:34:00,
2013-07-15 05:39:00,71.8,67.6,-100.00,ESE,103,0.0,1.0,87,0.00,,,0.00,meteohub,2013-07-15 10:39:00,
2013-07-15 05:44:00,71.8,67.6,-100.00,ESE,104,0.0,1.0,87,0.00,,,0.00,meteohub,2013-07-15 10:44:00,
2013-07-15 05:49:00,71.8,67.6,-100.00,ESE,104,0.0,0.0,87,0.00,,,0.00,meteohub,2013-07-15 10:49:00,
2013-07-15 05:54:00,71.6,67.5,-100.00,ESE,103,0.0,0.0,87,0.00,,,0.00,meteohub,2013-07-15 10:54:00,
2013-07-15 05:59:00,71.4,67.3,-100.00,ESE,104,0.0,0.0,87,0.00,,,0.00,meteohub,2013-07-15 10:59:00,
2013-07-15 06:05:00,71.6,67.8,-100.00,ESE,104,0.0,0.0,88,0.00,,,0.00,meteohub,2013-07-15 11:05:00,
2013-07-15 06:09:00,71.8,68.0,-100.00,ESE,104,0.0,0.0,88,0.00,,,0.00,meteohub,2013-07-15 11:09:00,
2013-07-15 06:14:00,71.8,68.0,-100.00,ESE,103,0.0,0.0,88,0.00,,,0.00,meteohub,2013-07-15 11:14:00,
2013-07-15 06:20:00,72.0,68.2,-100.00,ESE,103,0.0,1.0,88,0.00,,,0.00,meteohub,2013-07-15 11:20:00,
2013-07-15 06:25:00,72.1,68.4,-100.00,East,101,0.0,1.0,88,0.00,,,0.00,meteohub,2013-07-15 11:25:00,
2013-07-15 06:30:00,72.3,68.2,-100.00,East,100,0.0,1.0,87,0.00,,,0.00,meteohub,2013-07-15 11:30:00,
2013-07-15 06:35:00,72.7,68.5,-100.00,East,100,0.0,1.0,87,0.00,,,0.00,meteohub,2013-07-15 11:35:00,
2013-07-15 06:40:00,73.0,68.9,-100.00,East,99,0.0,1.0,87,0.00,,,0.00,meteohub,2013-07-15 11:40:00,
2013-07-15 06:45:00,73.4,68.9,-100.00,East,100,0.0,1.0,86,0.00,,,0.00,meteohub,2013-07-15 11:45:00,
2013-07-15 06:50:00,73.8,69.3,-100.00,East,99,0.0,1.0,86,0.00,,,0.00,meteohub,2013-07-15 11:50:00,
2013-07-15 06:55:00,73.9,69.4,-100.00,East,93,0.0,1.0,86,0.00,,,0.00,meteohub,2013-07-15 11:55:00,
2013-07-15 07:00:00,74.5,69.6,-100.00,East,93,0.0,2.0,85,0.00,,,0.00,meteohub,2013-07-15 12:00:00,
2013-07-15 07:05:00,74.8,69.6,-100.00,East,92,0.0,3.0,84,0.00,,,0.00,meteohub,2013-07-15 12:05:00,
2013-07-15 07:10:00,75.2,70.0,-100.00,East,91,0.0,3.0,84,0.00,,,0.00,meteohub,2013-07-15 12:10:00,
2013-07-15 07:15:00,75.4,69.8,-100.00,East,91,0.0,1.0,83,0.00,,,0.00,meteohub,2013-07-15 12:15:00,
2013-07-15 07:20:00,75.7,70.2,-100.00,East,81,3.0,3.0,83,0.00,,,0.00,meteohub,2013-07-15 12:20:00,
2013-07-15 07:25:00,76.1,70.2,-100.00,East,81,0.0,5.0,82,0.00,,,0.00,meteohub,2013-07-15 12:25:00,
2013-07-15 07:30:00,76.3,70.3,-100.00,East,81,0.0,5.0,82,0.00,,,0.00,meteohub,2013-07-15 12:30:00,
2013-07-15 07:35:00,76.8,70.9,-100.00,East,81,0.0,4.0,82,0.00,,,0.00,meteohub,2013-07-15 12:35:00,
2013-07-15 07:40:00,77.2,70.5,-100.00,East,84,0.0,1.0,80,0.00,,,0.00,meteohub,2013-07-15 12:40:00,
2013-07-15 07:45:00,77.4,70.7,-100.00,East,85,0.0,1.0,80,0.00,,,0.00,meteohub,2013-07-15 12:45:00,
2013-07-15 07:50:00,77.2,70.5,-100.00,East,88,0.0,1.0,80,0.00,,,0.00,meteohub,2013-07-15 12:50:00,
2013-07-15 07:55:00,77.5,70.9,-100.00,East,88,0.0,1.0,80,0.00,,,0.00,meteohub,2013-07-15 12:55:00,
2013-07-15 08:00:00,78.4,71.4,-100.00,East,88,0.0,1.0,79,0.00,,,0.00,meteohub,2013-07-15 13:00:00,
2013-07-15 08:05:00,79.3,71.4,-100.00,East,88,0.0,1.0,77,0.00,,,0.00,meteohub,2013-07-15 13:05:00,
2013-07-15 08:10:00,79.9,71.6,-100.00,East,88,0.0,1.0,76,0.00,,,0.00,meteohub,2013-07-15 13:10:00,
2013-07-15 08:15:00,80.1,71.8,-100.00,East,88,0.0,3.0,76,0.00,,,0.00,meteohub,2013-07-15 13:15:00,
2013-07-15 08:20:00,80.1,71.8,-100.00,East,90,0.0,3.0,76,0.00,,,0.00,meteohub,2013-07-15 13:20:00,
2013-07-15 08:25:00,80.4,71.8,-100.00,East,93,0.0,5.0,75,0.00,,,0.00,meteohub,2013-07-15 13:25:00,
2013-07-15 08:30:00,80.8,72.1,-100.00,East,93,0.0,5.0,75,0.00,,,0.00,meteohub,2013-07-15 13:30:00,
2013-07-15 08:35:00,81.3,72.7,-100.00,East,93,0.0,5.0,75,0.00,,,0.00,meteohub,2013-07-15 13:35:00,
2013-07-15 08:40:00,81.7,72.5,-100.00,East,92,0.0,1.0,74,0.00,,,0.00,meteohub,2013-07-15 13:40:00,
2013-07-15 08:45:00,81.9,72.3,-100.00,East,94,0.0,1.0,73,0.00,,,0.00,meteohub,2013-07-15 13:45:00,
2013-07-15 08:50:00,82.4,72.9,-100.00,East,98,0.0,1.0,73,0.00,,,0.00,meteohub,2013-07-15 13:50:00,
2013-07-15 08:56:00,83.1,73.2,-100.00,East,98,0.0,1.0,72,0.00,,,0.00,meteohub,2013-07-15 13:56:00,
2013-07-15 09:01:00,83.3,72.9,-100.00,East,98,0.0,1.0,71,0.00,,,0.00,meteohub,2013-07-15 14:01:00,
2013-07-15 09:05:00,84.0,73.2,-100.00,East,98,0.0,1.0,70,0.00,,,0.00,meteohub,2013-07-15 14:05:00,
2013-07-15 09:11:00,84.2,72.9,-100.00,East,100,0.0,1.0,69,0.00,,,0.00,meteohub,2013-07-15 14:11:00,
2013-07-15 09:16:00,84.6,73.2,-100.00,SE,134,0.0,6.0,69,0.00,,,0.00,meteohub,2013-07-15 14:16:00,
2013-07-15 09:21:00,84.9,73.6,-100.00,SE,130,0.0,6.0,69,0.00,,,0.00,meteohub,2013-07-15 14:21:00,
2013-07-15 09:26:00,86.2,73.4,-100.00,South,190,0.0,6.0,66,0.00,,,0.00,meteohub,2013-07-15 14:26:00,
2013-07-15 09:31:00,87.3,73.6,-100.00,SSE,167,0.0,5.0,64,0.00,,,0.00,meteohub,2013-07-15 14:31:00,
2013-07-15 09:36:00,88.0,73.8,-100.00,SSE,168,0.0,5.0,63,0.00,,,0.00,meteohub,2013-07-15 14:36:00,
2013-07-15 09:41:00,88.3,73.6,-100.00,SE,132,0.0,4.0,62,0.00,,,0.00,meteohub,2013-07-15 14:41:00,
2013-07-15 09:46:00,87.3,73.6,-100.00,SE,133,0.0,1.0,64,0.00,,,0.00,meteohub,2013-07-15 14:46:00,
2013-07-15 09:55:00,87.4,73.8,-100.00,SE,126,0.0,6.0,64,0.00,,,0.00,meteohub,2013-07-15 14:55:00,
2013-07-15 10:00:00,88.0,73.8,-100.00,South,191,0.0,6.0,63,0.00,,,0.00,meteohub,2013-07-15 15:00:00,
2013-07-15 10:05:00,88.5,73.8,-100.00,SE,146,0.0,6.0,62,0.00,,,0.00,meteohub,2013-07-15 15:05:00,
2013-07-15 10:10:00,88.3,73.2,-100.00,SE,124,0.0,6.0,61,0.00,,,0.00,meteohub,2013-07-15 15:10:00,
2013-07-15 10:15:00,89.1,73.9,-100.00,South,183,0.0,2.0,61,0.00,,,0.00,meteohub,2013-07-15 15:15:00,
2013-07-15 10:20:00,90.1,74.3,-100.00,South,190,0.0,7.0,60,0.00,,,0.00,meteohub,2013-07-15 15:20:00,
2013-07-15 10:25:00,89.8,73.6,-100.00,South,180,1.0,7.0,59,0.00,,,0.00,meteohub,2013-07-15 15:25:00,
2013-07-15 10:30:00,89.4,73.8,-100.00,SSW,192,0.0,7.0,60,0.00,,,0.00,meteohub,2013-07-15 15:30:00,
2013-07-15 10:35:00,89.1,73.4,-100.00,SSW,206,0.0,7.0,60,0.00,,,0.00,meteohub,2013-07-15 15:35:00,
2013-07-15 10:40:00,89.4,73.8,-100.00,SSW,205,0.0,7.0,60,0.00,,,0.00,meteohub,2013-07-15 15:40:00,
2013-07-15 10:45:00,89.6,73.4,-100.00,ESE,121,0.0,7.0,59,0.00,,,0.00,meteohub,2013-07-15 15:45:00,
2013-07-15 10:50:00,89.2,73.6,-100.00,South,177,3.0,7.0,60,0.00,,,0.00,meteohub,2013-07-15 15:50:00,
2013-07-15 10:55:00,90.7,74.3,-100.00,SSW,203,0.0,6.0,59,0.00,,,0.00,meteohub,2013-07-15 15:55:00,
2013-07-15 11:00:00,91.2,73.8,-100.00,SSW,202,0.0,6.0,57,0.00,,,0.00,meteohub,2013-07-15 16:00:00,
2013-07-15 11:05:00,90.3,73.6,-100.00,SSE,151,0.0,5.0,58,0.00,,,0.00,meteohub,2013-07-15 16:05:00,
2013-07-15 11:10:00,89.2,73.9,-100.00,SSE,155,0.0,4.0,61,0.00,,,0.00,meteohub,2013-07-15 16:10:00,
2013-07-15 11:15:00,89.8,73.6,-100.00,SSE,155,0.0,4.0,59,0.00,,,0.00,meteohub,2013-07-15 16:15:00,
2013-07-15 11:20:00,90.3,74.1,-100.00,SE,140,0.0,3.0,59,0.00,,,0.00,meteohub,2013-07-15 16:20:00,
2013-07-15 11:25:00,91.6,74.7,-100.00,SSW,205,0.0,3.0,58,0.00,,,0.00,meteohub,2013-07-15 16:25:00,
2013-07-15 11:30:00,92.5,74.5,-100.00,SSW,213,0.0,3.0,56,0.00,,,0.00,meteohub,2013-07-15 16:30:00,
2013-07-15 11:35:00,92.1,73.6,-100.00,South,184,0.0,5.0,55,0.00,,,0.00,meteohub,2013-07-15 16:35:00,
2013-07-15 11:40:00,92.1,73.6,-100.00,SSW,198,0.0,5.0,55,0.00,,,0.00,meteohub,2013-07-15 16:40:00,
2013-07-15 11:45:00,92.8,74.3,-100.00,SSW,196,0.0,5.0,55,0.00,,,0.00,meteohub,2013-07-15 16:45:00,
2013-07-15 11:50:00,93.4,73.8,-100.00,SSE,166,0.0,2.0,53,0.00,,,0.00,meteohub,2013-07-15 16:50:00,
2013-07-15 11:55:00,92.5,72.9,-100.00,SSW,207,0.0,6.0,53,0.00,,,0.00,meteohub,2013-07-15 16:55:00,
2013-07-15 12:00:00,91.9,73.4,-100.00,South,187,0.0,6.0,55,0.00,,,0.00,meteohub,2013-07-15 17:00:00,
2013-07-15 12:05:00,91.9,73.4,-100.00,SSW,199,0.0,6.0,55,0.00,,,0.00,meteohub,2013-07-15 17:05:00,
2013-07-15 12:10:00,92.5,73.4,-100.00,SSW,196,0.0,5.0,54,0.00,,,0.00,meteohub,2013-07-15 17:10:00,
2013-07-15 12:15:00,93.0,73.9,-100.00,SE,128,0.0,7.0,54,0.00,,,0.00,meteohub,2013-07-15 17:15:00,
2013-07-15 12:20:00,91.6,73.0,-100.00,ESE,121,0.0,7.0,55,0.00,,,0.00,meteohub,2013-07-15 17:20:00,
2013-07-15 12:25:00,91.2,73.4,-100.00,South,184,0.0,1.0,56,0.00,,,0.00,meteohub,2013-07-15 17:25:00,
2013-07-15 12:30:00,91.4,72.3,-100.00,SE,138,0.0,2.0,54,0.00,,,0.00,meteohub,2013-07-15 17:30:00,
2013-07-15 12:35:00,92.5,73.4,-100.00,ESE,119,0.0,2.0,54,0.00,,,0.00,meteohub,2013-07-15 17:35:00,
2013-07-15 12:40:00,92.7,73.0,-100.00,ESE,123,0.0,2.0,53,0.00,,,0.00,meteohub,2013-07-15 17:40:00,
2013-07-15 12:45:00,93.6,73.8,-100.00,SE,134,0.0,1.0,53,0.00,,,0.00,meteohub,2013-07-15 17:45:00,
2013-07-15 12:50:00,92.8,73.2,-100.00,ESE,109,0.0,3.0,53,0.00,,,0.00,meteohub,2013-07-15 17:50:00,
2013-07-15 12:55:00,92.8,73.2,-100.00,ESE,123,0.0,9.0,53,0.00,,,0.00,meteohub,2013-07-15 17:55:00,
2013-07-15 13:00:00,92.5,72.9,-100.00,South,172,0.0,9.0,53,0.00,,,0.00,meteohub,2013-07-15 18:00:00,
2013-07-15 13:05:00,92.5,72.9,-100.00,SSW,198,0.0,6.0,53,0.00,,,0.00,meteohub,2013-07-15 18:05:00,
2013-07-15 13:11:00,92.8,73.2,-100.00,South,190,0.0,6.0,53,0.00,,,0.00,meteohub,2013-07-15 18:11:00,
2013-07-15 13:16:00,91.8,72.1,-100.00,ESE,117,0.0,7.0,53,0.00,,,0.00,meteohub,2013-07-15 18:16:00,
2013-07-15 13:21:00,91.2,71.6,-100.00,ESE,120,0.0,7.0,53,0.00,,,0.00,meteohub,2013-07-15 18:21:00,
2013-07-15 13:26:00,90.9,72.0,-100.00,East,98,1.0,5.0,54,0.00,,,0.00,meteohub,2013-07-15 18:26:00,
2013-07-15 13:31:00,91.0,72.1,-100.00,ESE,121,0.0,5.0,54,0.00,,,0.00,meteohub,2013-07-15 18:31:00,
2013-07-15 13:36:00,91.9,72.9,-100.00,SE,126,0.0,5.0,54,0.00,,,0.00,meteohub,2013-07-15 18:36:00,
2013-07-15 13:41:00,92.7,72.5,-100.00,SE,144,0.0,6.0,52,0.00,,,0.00,meteohub,2013-07-15 18:41:00,
2013-07-15 13:46:00,92.5,72.3,-100.00,SE,144,0.0,6.0,52,0.00,,,0.00,meteohub,2013-07-15 18:46:00,
2013-07-15 13:51:00,91.9,72.3,-100.00,SE,127,1.0,6.0,53,0.00,,,0.00,meteohub,2013-07-15 18:51:00,
2013-07-15 13:56:00,91.9,72.3,-100.00,ESE,113,1.0,6.0,53,0.00,,,0.00,meteohub,2013-07-15 18:56:00,
2013-07-15 14:01:00,91.9,72.3,-100.00,SE,132,5.0,7.0,53,0.00,,,0.00,meteohub,2013-07-15 19:01:00,
2013-07-15 14:06:00,91.9,72.3,-100.00,SE,126,0.0,7.0,53,0.00,,,0.00,meteohub,2013-07-15 19:06:00,
2013-07-15 14:11:00,91.9,72.3,-100.00,SE,144,0.0,7.0,53,0.00,,,0.00,meteohub,2013-07-15 19:11:00,
2013-07-15 14:16:00,91.9,72.9,-100.00,SE,134,1.0,7.0,54,0.00,,,0.00,meteohub,2013-07-15 19:16:00,
2013-07-15 14:21:00,91.0,72.7,-100.00,ESE,107,0.0,7.0,55,0.00,,,0.00,meteohub,2013-07-15 19:21:00,
2013-07-15 14:26:00,89.2,73.0,-100.00,ENE,65,8.0,12.0,59,0.00,,,0.00,meteohub,2013-07-15 19:26:00,
2013-07-15 14:31:00,88.9,73.8,-100.00,ENE,78,0.0,12.0,61,0.00,,,0.00,meteohub,2013-07-15 19:31:00,
2013-07-15 14:36:00,88.7,73.9,-100.00,ESE,109,0.0,12.0,62,0.00,,,0.00,meteohub,2013-07-15 19:36:00,
2013-07-15 14:41:00,89.4,73.2,-100.00,ESE,121,0.0,10.0,59,0.00,,,0.00,meteohub,2013-07-15 19:41:00,
2013-07-15 14:46:00,89.1,73.9,-100.00,ENE,75,0.0,11.0,61,0.00,,,0.00,meteohub,2013-07-15 19:46:00,
2013-07-15 14:51:00,89.8,74.5,-100.00,East,88,2.0,11.0,61,0.00,,,0.00,meteohub,2013-07-15 19:51:00,
2013-07-15 14:56:00,90.3,75.0,-100.00,East,86,0.0,9.0,61,0.00,,,0.00,meteohub,2013-07-15 19:56:00,
2013-07-15 15:02:00,90.9,74.1,-100.00,SE,125,0.0,10.0,58,0.00,,,0.00,meteohub,2013-07-15 20:02:00,
2013-07-15 15:07:00,90.3,73.0,-100.00,ESE,102,0.0,10.0,57,0.00,,,0.00,meteohub,2013-07-15 20:07:00,
2013-07-15 15:12:00,90.0,72.7,-100.00,East,100,0.0,10.0,57,0.00,,,0.00,meteohub,2013-07-15 20:12:00,
2013-07-15 15:17:00,90.1,73.4,-100.00,East,84,1.0,7.0,58,0.00,,,0.00,meteohub,2013-07-15 20:17:00,
2013-07-15 15:22:00,89.8,73.6,-100.00,East,86,2.0,7.0,59,0.00,,,0.00,meteohub,2013-07-15 20:22:00,
2013-07-15 15:27:00,90.1,73.9,-100.00,ENE,70,0.0,7.0,59,0.00,,,0.00,meteohub,2013-07-15 20:27:00,
2013-07-15 15:32:00,90.3,73.6,-100.00,ENE,65,1.0,7.0,58,0.00,,,0.00,meteohub,2013-07-15 20:32:00,
2013-07-15 15:37:00,90.1,72.9,-100.00,East,88,0.0,7.0,57,0.00,,,0.00,meteohub,2013-07-15 20:37:00,
2013-07-15 15:42:00,90.5,73.8,-100.00,East,92,0.0,7.0,58,0.00,,,0.00,meteohub,2013-07-15 20:42:00,
2013-07-15 15:47:00,90.7,73.4,-100.00,East,96,2.0,7.0,57,0.00,,,0.00,meteohub,2013-07-15 20:47:00,
2013-07-15 15:52:00,90.1,72.3,-100.00,East,101,5.0,10.0,56,0.00,,,0.00,meteohub,2013-07-15 20:52:00,
2013-07-15 15:57:00,90.5,73.2,-100.00,ESE,116,0.0,10.0,57,0.00,,,0.00,meteohub,2013-07-15 20:57:00,
2013-07-15 16:02:00,90.3,72.5,-100.00,ESE,107,0.0,10.0,56,0.00,,,0.00,meteohub,2013-07-15 21:02:00,
2013-07-15 16:07:00,90.1,71.8,-100.00,ESE,106,0.0,8.0,55,0.00,,,0.00,meteohub,2013-07-15 21:07:00,
2013-07-15 16:12:00,90.9,73.0,-100.00,East,92,2.0,8.0,56,0.00,,,0.00,meteohub,2013-07-15 21:12:00,
2013-07-15 16:17:00,90.3,72.0,-100.00,ESE,112,0.0,10.0,55,0.00,,,0.00,meteohub,2013-07-15 21:17:00,
2013-07-15 16:22:00,90.1,72.3,-100.00,ESE,112,0.0,10.0,56,0.00,,,0.00,meteohub,2013-07-15 21:22:00,
2013-07-15 16:27:00,90.5,72.7,-100.00,East,91,0.0,7.0,56,0.00,,,0.00,meteohub,2013-07-15 21:27:00,
2013-07-15 16:32:00,90.9,73.0,-100.00,East,94,2.0,7.0,56,0.00,,,0.00,meteohub,2013-07-15 21:32:00,
2013-07-15 16:37:00,90.7,72.9,-100.00,ENE,71,6.0,6.0,56,0.00,,,0.00,meteohub,2013-07-15 21:37:00,
2013-07-15 16:42:00,90.3,72.0,-100.00,ESE,120,5.0,7.0,55,0.00,,,0.00,meteohub,2013-07-15 21:42:00,
2013-07-15 16:47:00,90.7,72.9,-100.00,SE,125,3.0,7.0,56,0.00,,,0.00,meteohub,2013-07-15 21:47:00,
2013-07-15 16:52:00,90.9,72.5,-100.00,ESE,121,0.0,9.0,55,0.00,,,0.00,meteohub,2013-07-15 21:52:00,
2013-07-15 16:57:00,91.2,73.4,-100.00,ESE,114,2.0,9.0,56,0.00,,,0.00,meteohub,2013-07-15 21:57:00,
2013-07-15 17:02:00,90.3,72.5,-100.00,ESE,123,0.0,9.0,56,0.00,,,0.00,meteohub,2013-07-15 22:02:00,
2013-07-15 17:07:00,89.1,72.3,-100.00,ESE,105,1.0,6.0,58,0.00,,,0.00,meteohub,2013-07-15 22:07:00,
2013-07-15 17:12:00,88.3,72.7,-100.00,East,82,0.0,6.0,60,0.00,,,0.00,meteohub,2013-07-15 22:12:00,
2013-07-15 17:17:00,88.2,72.5,-100.00,SE,125,0.0,6.0,60,0.00,,,0.00,meteohub,2013-07-15 22:17:00,
2013-07-15 17:22:00,88.3,72.1,-100.00,ESE,121,0.0,6.0,59,0.00,,,0.00,meteohub,2013-07-15 22:22:00,
2013-07-15 17:27:00,88.3,72.7,-100.00,East,94,0.0,5.0,60,0.00,,,0.00,meteohub,2013-07-15 22:27:00,
2013-07-15 17:32:00,88.0,72.3,-100.00,SE,138,0.0,7.0,60,0.00,,,0.00,meteohub,2013-07-15 22:32:00,
2013-07-15 17:37:00,87.8,72.7,-100.00,SE,134,0.0,7.0,61,0.00,,,0.00,meteohub,2013-07-15 22:37:00,
2013-07-15 17:43:00,87.6,73.4,-100.00,SSW,212,0.0,6.0,63,0.00,,,0.00,meteohub,2013-07-15 22:43:00,
2013-07-15 17:48:00,87.4,73.8,-100.00,SSW,207,0.0,10.0,64,0.00,,,0.00,meteohub,2013-07-15 22:48:00,
2013-07-15 17:53:00,88.2,73.9,-100.00,SSW,207,0.0,10.0,63,0.00,,,0.00,meteohub,2013-07-15 22:53:00,
2013-07-15 17:58:00,88.5,74.3,-100.00,SSW,207,0.0,10.0,63,0.00,,,0.00,meteohub,2013-07-15 22:58:00,
2013-07-15 18:03:00,89.1,74.8,-100.00,SSW,207,0.0,1.0,63,0.00,,,0.00,meteohub,2013-07-15 23:03:00,
2013-07-15 18:08:00,89.4,74.1,-100.00,SSW,206,0.0,0.0,61,0.00,,,0.00,meteohub,2013-07-15 23:08:00,
2013-07-15 18:13:00,89.6,74.3,-100.00,SE,141,0.0,0.0,61,0.00,,,0.00,meteohub,2013-07-15 23:13:00,
2013-07-15 18:18:00,89.4,74.1,-100.00,SE,128,0.0,0.0,61,0.00,,,0.00,meteohub,2013-07-15 23:18:00,
2013-07-15 18:23:00,89.2,74.5,-100.00,SE,128,0.0,2.0,62,0.00,,,0.00,meteohub,2013-07-15 23:23:00,
2013-07-15 18:28:00,89.2,74.5,-100.00,SE,127,0.0,2.0,62,0.00,,,0.00,meteohub,2013-07-15 23:28:00,
2013-07-15 18:33:00,89.2,75.0,-100.00,SE,136,0.0,1.0,63,0.00,,,0.00,meteohub,2013-07-15 23:33:00,
2013-07-15 18:38:00,89.8,75.0,-100.00,SSE,156,0.0,1.0,62,0.00,,,0.00,meteohub,2013-07-15 23:38:00,
2013-07-15 18:43:00,89.6,75.4,-100.00,SSE,157,0.0,4.0,63,0.00,,,0.00,meteohub,2013-07-15 23:43:00,
2013-07-15 18:48:00,90.0,75.7,-100.00,SSE,159,0.0,4.0,63,0.00,,,0.00,meteohub,2013-07-15 23:48:00,
2013-07-15 18:53:00,89.8,75.0,-100.00,SSE,159,0.0,4.0,62,0.00,,,0.00,meteohub,2013-07-15 23:53:00,
2013-07-15 18:58:00,89.1,74.8,-100.00,SE,128,0.0,1.0,63,0.00,,,0.00,meteohub,2013-07-15 23:58:00,
2013-07-15 19:03:00,88.5,74.8,-100.00,SE,128,0.0,3.0,64,0.00,,,0.00,meteohub,2013-07-16 00:03:00,
2013-07-15 19:08:00,88.0,74.7,-100.00,SE,126,0.0,4.0,65,0.00,,,0.00,meteohub,2013-07-16 00:08:00,
2013-07-15 19:13:00,87.8,75.0,-100.00,ESE,117,3.0,5.0,66,0.00,,,0.00,meteohub,2013-07-16 00:13:00,
2013-07-15 19:18:00,87.4,74.7,-100.00,ESE,109,0.0,6.0,66,0.00,,,0.00,meteohub,2013-07-16 00:18:00,
2013-07-15 19:23:00,86.7,73.9,-100.00,ESE,106,4.0,6.0,66,0.00,,,0.00,meteohub,2013-07-16 00:23:00,
2013-07-15 19:28:00,85.6,73.4,-100.00,ESE,121,4.0,11.0,67,0.00,,,0.00,meteohub,2013-07-16 00:28:00,
2013-07-15 19:33:00,84.9,73.2,-100.00,ESE,102,0.0,11.0,68,0.00,,,0.00,meteohub,2013-07-16 00:33:00,
2013-07-15 19:38:00,84.6,73.2,-100.00,East,97,0.0,11.0,69,0.00,,,0.00,meteohub,2013-07-16 00:38:00,
2013-07-15 19:43:00,84.0,73.2,-100.00,East,96,0.0,6.0,70,0.00,,,0.00,meteohub,2013-07-16 00:43:00,
2013-07-15 19:48:00,83.8,73.0,-100.00,East,94,0.0,4.0,70,0.00,,,0.00,meteohub,2013-07-16 00:48:00,
2013-07-15 19:53:00,83.7,72.9,-100.00,East,94,0.0,2.0,70,0.00,,,0.00,meteohub,2013-07-16 00:53:00,
2013-07-15 19:58:00,83.3,72.9,-100.00,East,94,0.0,2.0,71,0.00,,,0.00,meteohub,2013-07-16 00:58:00,
2013-07-15 20:03:00,82.9,72.5,-100.00,East,92,0.0,1.0,71,0.00,,,0.00,meteohub,2013-07-16 01:03:00,
2013-07-15 20:08:00,82.8,72.9,-100.00,East,93,0.0,1.0,72,0.00,,,0.00,meteohub,2013-07-16 01:08:00,
2013-07-15 20:13:00,82.6,72.7,-100.00,East,94,0.0,1.0,72,0.00,,,0.00,meteohub,2013-07-16 01:13:00,
2013-07-15 20:19:00,82.6,73.0,-100.00,East,94,0.0,1.0,73,0.00,,,0.00,meteohub,2013-07-16 01:19:00,
2013-07-15 20:24:00,82.2,72.7,-100.00,East,94,0.0,1.0,73,0.00,,,0.00,meteohub,2013-07-16 01:24:00,
2013-07-15 20:29:00,82.2,72.7,-100.00,East,88,0.0,1.0,73,0.00,,,0.00,meteohub,2013-07-16 01:29:00,
2013-07-15 20:34:00,82.2,72.7,-100.00,East,87,0.0,1.0,73,0.00,,,0.00,meteohub,2013-07-16 01:34:00,
2013-07-15 20:39:00,82.0,72.5,-100.00,East,88,0.0,1.0,73,0.00,,,0.00,meteohub,2013-07-16 01:39:00,
2013-07-15 20:44:00,82.0,72.9,-100.00,East,88,0.0,1.0,74,0.00,,,0.00,meteohub,2013-07-16 01:44:00,
2013-07-15 20:49:00,81.9,72.7,-100.00,East,87,0.0,1.0,74,0.00,,,0.00,meteohub,2013-07-16 01:49:00,
2013-07-15 20:54:00,81.7,72.5,-100.00,East,88,0.0,1.0,74,0.00,,,0.00,meteohub,2013-07-16 01:54:00,
2013-07-15 20:59:00,81.5,72.9,-100.00,East,87,0.0,1.0,75,0.00,,,0.00,meteohub,2013-07-16 01:59:00,
2013-07-15 21:04:00,81.3,72.7,-100.00,East,87,0.0,0.0,75,0.00,,,0.00,meteohub,2013-07-16 02:04:00,
2013-07-15 21:09:00,81.3,73.0,-100.00,East,88,0.0,0.0,76,0.00,,,0.00,meteohub,2013-07-16 02:09:00,
2013-07-15 21:14:00,81.1,73.2,-100.00,East,88,0.0,1.0,77,0.00,,,0.00,meteohub,2013-07-16 02:14:00,
2013-07-15 21:19:00,81.1,73.2,-100.00,East,88,0.0,1.0,77,0.00,,,0.00,meteohub,2013-07-16 02:19:00,
2013-07-15 21:24:00,81.0,73.4,-100.00,East,88,0.0,1.0,78,0.00,,,0.00,meteohub,2013-07-16 02:24:00,
2013-07-15 21:29:00,80.8,73.2,-100.00,East,87,0.0,1.0,78,0.00,,,0.00,meteohub,2013-07-16 02:29:00,
2013-07-15 21:34:00,80.6,73.0,-100.00,East,88,0.0,1.0,78,0.00,,,0.00,meteohub,2013-07-16 02:34:00,
2013-07-15 21:39:00,80.4,73.2,-100.00,East,87,0.0,1.0,79,0.00,,,0.00,meteohub,2013-07-16 02:39:00,
2013-07-15 21:44:00,80.4,73.2,-100.00,East,88,0.0,0.0,79,0.00,,,0.00,meteohub,2013-07-16 02:44:00,
2013-07-15 21:49:00,80.2,73.6,-100.00,East,87,0.0,0.0,80,0.00,,,0.00,meteohub,2013-07-16 02:49:00,
2013-07-15 21:54:00,80.2,73.6,-100.00,East,90,0.0,0.0,80,0.00,,,0.00,meteohub,2013-07-16 02:54:00,
2013-07-15 21:59:00,80.2,73.6,-100.00,SE,140,0.0,0.0,80,0.00,,,0.00,meteohub,2013-07-16 02:59:00,
2013-07-15 22:04:00,80.1,73.8,-100.00,SE,140,0.0,1.0,81,0.00,,,0.00,meteohub,2013-07-16 03:04:00,
2013-07-15 22:09:00,80.2,73.9,-100.00,SE,140,0.0,1.0,81,0.00,,,0.00,meteohub,2013-07-16 03:09:00,
2013-07-15 22:14:00,80.2,73.9,-100.00,SE,140,0.0,1.0,81,0.00,,,0.00,meteohub,2013-07-16 03:14:00,
2013-07-15 22:19:00,80.1,73.8,-100.00,SE,140,0.0,1.0,81,0.00,,,0.00,meteohub,2013-07-16 03:19:00,
2013-07-15 22:24:00,79.7,73.8,-100.00,SE,140,0.0,1.0,82,0.00,,,0.00,meteohub,2013-07-16 03:24:00,
2013-07-15 22:29:00,79.5,73.6,-100.00,SE,140,0.0,1.0,82,0.00,,,0.00,meteohub,2013-07-16 03:29:00,
2013-07-15 22:34:00,79.3,73.8,-100.00,SE,140,0.0,1.0,83,0.00,,,0.00,meteohub,2013-07-16 03:34:00,
2013-07-15 22:39:00,79.2,73.6,-100.00,SE,140,0.0,1.0,83,0.00,,,0.00,meteohub,2013-07-16 03:39:00,
2013-07-15 22:44:00,79.0,73.4,-100.00,SE,140,0.0,0.0,83,0.00,,,0.00,meteohub,2013-07-16 03:44:00,
2013-07-15 22:49:00,78.6,73.4,-100.00,SE,140,0.0,0.0,84,0.00,,,0.00,meteohub,2013-07-16 03:49:00,
2013-07-15 22:54:00,78.6,73.4,-100.00,SE,140,0.0,0.0,84,0.00,,,0.00,meteohub,2013-07-16 03:54:00,
2013-07-15 22:59:00,78.4,73.2,-100.00,SE,140,0.0,0.0,84,0.00,,,0.00,meteohub,2013-07-16 03:59:00,
2013-07-15 23:01:00,78.4,73.6,-100.00,SE,140,0.0,0.0,85,0.00,,,0.00,meteohub,2013-07-16 04:01:00,
2013-07-15 23:06:00,78.4,73.6,-100.00,SE,140,0.0,1.0,85,0.00,,,0.00,meteohub,2013-07-16 04:06:00,
2013-07-15 23:11:00,78.3,73.4,-100.00,SE,140,0.0,1.0,85,0.00,,,0.00,meteohub,2013-07-16 04:11:00,
2013-07-15 23:16:00,78.1,73.2,-100.00,SE,140,0.0,1.0,85,0.00,,,0.00,meteohub,2013-07-16 04:16:00,
2013-07-15 23:21:00,78.1,73.6,-100.00,SE,140,0.0,0.0,86,0.00,,,0.00,meteohub,2013-07-16 04:21:00,
2013-07-15 23:26:00,78.1,73.6,-100.00,SE,140,0.0,0.0,86,0.00,,,0.00,meteohub,2013-07-16 04:26:00,
2013-07-15 23:31:00,77.9,73.4,-100.00,SE,140,0.0,0.0,86,0.00,,,0.00,meteohub,2013-07-16 04:31:00,
2013-07-15 23:36:00,77.7,73.2,-100.00,SE,140,0.0,1.0,86,0.00,,,0.00,meteohub,2013-07-16 04:36:00,
2013-07-15 23:41:00,77.7,73.2,-100.00,SE,140,0.0,1.0,86,0.00,,,0.00,meteohub,2013-07-16 04:41:00,
2013-07-15 23:46:00,77.7,73.2,-100.00,SE,140,0.0,1.0,86,0.00,,,0.00,meteohub,2013-07-16 04:46:00,
2013-07-15 23:51:00,77.7,73.2,-100.00,SE,140,0.0,0.0,86,0.00,,,0.00,meteohub,2013-07-16 04:51:00,
2013-07-15 23:56:00,77.7,73.2,-100.00,SE,140,0.0,0.0,86,0.00,,,0.00,meteohub,2013-07-16 04:56:00,